Regional Weather Roundup
Issued by NWS

Home | Current Version | Previous Version | Graphics & Text | Print | Product List | Glossary Off
Versions: 1 2 3 4 5 6 7 8 9 10 11 12 13 14 15 16 17 18 19 20 21 22 23 24 25 26 27 28 29 30 31 32 33 34 35 36 37 38 39 40 41 42 43 44 45 46 47 48 49 50

000
ASUS43 KDMX 291507
RWRIA

WEATHER ROUNDUP FOR IOWA
NATIONAL WEATHER SERVICE DES MOINES IA
1000 AM CDT FRI MAY 29 2015

NOTE: "FAIR" INDICATES FEW OR NO CLOUDS BELOW 12,000 FEET WITH NO
SIGNIFICANT WEATHER AND/OR OBSTRUCTIONS TO VISIBILITY.

* - THESE STATIONS ARE NOT NWS STATIONS...THUS NOT UNDER NWS
QUALITY CONTROL.  THEY ALSO DO NOT REPORT WEATHER SUCH
AS PRECIPITATION OR FOG.

IAZ001>003-012>014-020>022-031>034-043>046-291600-
   NORTHWEST IOWA

CITY           SKY/WX    TMP DP  RH WIND       PRES   REMARKS
CARROLL *      CLOUDY    66  64  94 SW15      29.93R
CHEROKEE *     CLOUDY    68  66  94 S9        29.91S
DENISON *      PTSUNNY   66  66 100 SW8G15    29.91F
LE MARS *      CLOUDY    68  64  88 SW9       29.91S
ORANGE CITY *  CLOUDY    64  63  94 SW7       29.91S FOG
SHELDON *      CLOUDY    64  64 100 S7        29.89F FOG
SIOUX CITY     CLOUDY    67  60  78 SW6       29.91R
SPENCER        LGT RAIN  66  64  93 S12       29.91S FOG
STORM LAKE *   PTSUNNY   66  64  94 SW13      29.93F FOG
$$

IAZ055>058-069>071-079>083-090>094-291600-
   SOUTHWEST IOWA

CITY           SKY/WX    TMP DP  RH WIND       PRES   REMARKS
ATLANTIC *     CLOUDY    66  66 100 S5        29.94S
AUDUBON *      CLOUDY    64  63  94 S7        29.95S
CLARINDA *     PTSUNNY   68  66  94 S6        29.95F
COUNCIL BLFS * MOSUNNY   68  68 100 SW9       29.94S
CRESTON *      CLOUDY    66  66 100 SW10      29.96S
HARLAN  *      PTSUNNY   66  66 100 S10       29.96S
LAMONI         CLOUDY    71  65  81 S13       29.98R
RED OAK *      CLOUDY    66  66 100 SW6       29.95R
SHENANDOAH *   CLOUDY    68  68 100 SW8       29.95R
$$

IAZ047>049-059>061-072>074-084-291600-
   CENTRAL IOWA

CITY           SKY/WX    TMP DP  RH WIND       PRES   REMARKS
AMES           CLOUDY    70  64  81 SW10      29.94S
ANKENY *       PTSUNNY   70  64  83 SW7       29.95S
CHARITON *     PTSUNNY   68  64  88 SW8       29.97S
DES MOINES     CLOUDY    70  63  78 SW8       29.95S
GRINNELL*      PTSUNNY   70  63  78 S8        29.98R
KNOXVILLE *    SUNNY     70  64  83 SW12G17   29.96R
MARSHALLTOWN   PTSUNNY   73  63  70 S14       29.94S
PELLA *        CLOUDY    73  68  83 SW8       29.98R
PERRY *        LGT RAIN  66  64  94 SW10      29.94S
$$

IAZ004>006-015-016-023>025-035-036-291600-
   NORTH CENTRAL IOWA

CITY           SKY/WX    TMP DP  RH WIND       PRES   REMARKS
ALGONA *       PTSUNNY   66  66 100 S14       29.92F
CLARION *      PTSUNNY   68  63  83 SW8       29.94S
ESTHERVILLE    CLOUDY    65  63  93 S16       29.90S
FORT DODGE *   CLOUDY    66  63  88 SW9       29.95R
MASON CITY     CLOUDY    70  63  78 SW8       29.94S
FOREST CITY *  MOSUNNY   64  64 100 SW10      29.92F
IOWA FALLS *     N/A     72  63  73 S14       29.94F
$$

IAZ007>011-017>019-026>030-037>042-050>054-066-291600-
   NORTHEAST IOWA

CITY           SKY/WX    TMP DP  RH WIND       PRES   REMARKS
CEDAR RAPIDS   PTSUNNY   71  67  87 S7        29.95F
CHARLES CITY * MOSUNNY   72  66  83 S10       29.94F
CLINTON *      PTSUNNY   73  64  73 S9        30.00F
DECORAH *      MOSUNNY   72  63  73 SW8       29.94F
DUBUQUE        CLOUDY    69  65  86 S13       29.98F
MONTICELLO *   CLOUDY    70  68  94 S7        29.96F
OELWEIN *      SUNNY     72  64  78 S8G15     29.96F
WATERLOO       PTSUNNY   73  64  73 S8        29.93F
$$

IAZ064-065-067-068-078-291600-
   EAST CENTRAL IOWA

CITY           SKY/WX    TMP DP  RH WIND       PRES   REMARKS
DAVENPORT      LGT RAIN  70  66  87 S12       29.98F
IOWA CITY      PTSUNNY   72  66  81 S5        29.96F
MT. PLEASANT * CLOUDY    72  64  78 SW7       29.98S
MUSCATINE *    CLOUDY    72  66  83 S8        29.97S
QUAD CITIES    CLOUDY    70  67  90 S6        29.97F
$$

IAZ062-063-075>077-085>089-095>099-291600-
   SOUTHEAST IOWA

CITY           SKY/WX    TMP DP  RH WIND       PRES   REMARKS
BURLINGTON     CLOUDY    70  67  90 SW10      29.98S
FAIRFIELD *    PTSUNNY   70  66  88 SW8       29.97S
FORT MADISON * CLOUDY    70  66  88 SW9       29.99S
KEOKUK *       CLOUDY    70  68  94 SW7       29.98S
OSKALOOSA *      N/A     70  64  83 SW9       29.97S
CENTERVILLE *  MOSUNNY   68  68 100 SW9       29.99S
OTTUMWA        PTSUNNY   71  67  87 SW9       29.95F
WASHINGTON *   CLOUDY    72  68  88 S9        29.98S
$$

ABBREVIATIONS USED IN REMARKS
   TC - TEMPERATURES IN CELSIUS
  WCI - WIND CHILL INDEX
   HX - HEAT INDEX
  VSB - VISIBILITY
$$




USA.gov is the U.S. government's official web portal to all federal, state and local government web resources and services.